FCN587 KMLB-MNMG

Flight info

Callsign FCN587
Flight time 2h 27m
Altitude 38000
Route TIRCO Q87 PEAKY Y183 IKBIX DCT TAMDI DCT CISNE DCT RAKEL RAKEL1B
Aircraft A320/M-SDE3FGHIRWY/LB1

Departure

Time 2026-04-27 23:15
Airport Melbourne Orlando International Airport (KMLB)

Arrival

Time 2026-04-28 01:42
Airport Augusto C. Sandino (Managua) International Airport (MNMG)
Time Latitude Longitude Altitude Speed Heading
2026-04-27 22:53 28.09910 -80.63102 34 ft 0 kts 102°
2026-04-27 23:01 28.09913 -80.63116 34 ft 3 kts 102°
2026-04-27 23:01 28.09917 -80.63136 32 ft 2 kts 101°
2026-04-27 23:02 28.09921 -80.63154 31 ft 3 kts 124°
2026-04-27 23:02 28.09930 -80.63165 32 ft 3 kts 189°
2026-04-27 23:02 28.09946 -80.63157 32 ft 3 kts 215°
2026-04-27 23:02 28.09963 -80.63145 33 ft 3 kts 196°
2026-04-27 23:03 28.09975 -80.63142 34 ft 2 kts 184°
2026-04-27 23:03 28.09990 -80.63141 32 ft 1 kts 184°
2026-04-27 23:03 28.09991 -80.63141 32 ft 1 kts 184°
2026-04-27 23:05 28.09989 -80.63141 32 ft 0 kts 184°
2026-04-27 23:06 28.09975 -80.63142 34 ft 7 kts 184°
2026-04-27 23:06 28.09922 -80.63156 31 ft 8 kts 207°
2026-04-27 23:06 28.09896 -80.63202 33 ft 7 kts 264°
2026-04-27 23:06 28.09909 -80.63248 32 ft 6 kts 302°
2026-04-27 23:07 28.09930 -80.63279 33 ft 6 kts 310°
2026-04-27 23:07 28.09984 -80.63350 35 ft 13 kts 313°
2026-04-27 23:07 28.10042 -80.63419 35 ft 12 kts 312°
2026-04-27 23:07 28.10104 -80.63527 36 ft 20 kts 272°
2026-04-27 23:08 28.10104 -80.63670 38 ft 17 kts 266°
2026-04-27 23:08 28.10100 -80.63797 38 ft 16 kts 268°
2026-04-27 23:08 28.10095 -80.63921 37 ft 16 kts 267°
2026-04-27 23:08 28.10089 -80.64038 38 ft 14 kts 266°
2026-04-27 23:09 28.10083 -80.64134 40 ft 11 kts 266°
2026-04-27 23:09 28.10079 -80.64214 41 ft 10 kts 266°
2026-04-27 23:09 28.10077 -80.64289 40 ft 10 kts 269°
2026-04-27 23:09 28.10075 -80.64366 39 ft 10 kts 266°
2026-04-27 23:10 28.10071 -80.64447 38 ft 10 kts 266°
2026-04-27 23:10 28.10067 -80.64523 39 ft 9 kts 266°
2026-04-27 23:10 28.10062 -80.64621 40 ft 22 kts 267°
2026-04-27 23:10 28.10055 -80.64802 38 ft 23 kts 266°
2026-04-27 23:11 28.10046 -80.64979 37 ft 22 kts 267°
2026-04-27 23:11 28.10039 -80.65142 38 ft 20 kts 267°
2026-04-27 23:11 28.10031 -80.65292 38 ft 18 kts 266°
2026-04-27 23:11 28.10026 -80.65432 38 ft 17 kts 267°
2026-04-27 23:12 28.10020 -80.65557 40 ft 15 kts 266°
2026-04-27 23:12 28.10014 -80.65665 41 ft 13 kts 266°
2026-04-27 23:12 28.10010 -80.65760 42 ft 11 kts 266°
2026-04-27 23:12 28.10004 -80.65865 43 ft 15 kts 266°
2026-04-27 23:13 28.09998 -80.65976 43 ft 13 kts 266°
2026-04-27 23:13 28.10005 -80.66076 43 ft 13 kts 303°
2026-04-27 23:13 28.10086 -80.66097 42 ft 13 kts
2026-04-27 23:13 28.10132 -80.66010 40 ft 16 kts 95°
2026-04-27 23:14 28.10140 -80.65871 39 ft 20 kts 86°
2026-04-27 23:14 28.10158 -80.65510 39 ft 82 kts 86°
2026-04-27 23:14 28.10205 -80.64616 39 ft 142 kts 87°
2026-04-27 23:14 28.10253 -80.63363 320 ft 169 kts 89°
2026-04-27 23:15 28.10303 -80.61999 902 ft 180 kts 88°
2026-04-27 23:15 28.10365 -80.60553 1590 ft 185 kts 89°
2026-04-27 23:15 28.10125 -80.59062 1976 ft 211 kts 122°
2026-04-27 23:15 28.08916 -80.57941 1991 ft 251 kts 162°
2026-04-27 23:16 28.07144 -80.57849 1996 ft 257 kts 193°
2026-04-27 23:16 28.05437 -80.58430 1994 ft 257 kts 199°
2026-04-27 23:16 28.03736 -80.59054 1991 ft 257 kts 198°
2026-04-27 23:16 28.02032 -80.59681 1994 ft 257 kts 198°
2026-04-27 23:17 28.00321 -80.60314 2451 ft 267 kts 199°
2026-04-27 23:17 27.98579 -80.60959 3685 ft 261 kts 199°
2026-04-27 23:17 27.96845 -80.61601 4761 ft 265 kts 199°
2026-04-27 23:17 27.95079 -80.62255 5747 ft 269 kts 200°
2026-04-27 23:18 27.93282 -80.62918 6703 ft 274 kts 201°
2026-04-27 23:18 27.91454 -80.63591 7586 ft 279 kts 200°
2026-04-27 23:18 27.89588 -80.64275 8477 ft 285 kts 201°
2026-04-27 23:18 27.87693 -80.64972 9383 ft 289 kts 201°
2026-04-27 23:19 27.85759 -80.65684 10220 ft 297 kts 201°
2026-04-27 23:19 27.83714 -80.66443 10564 ft 321 kts 201°
2026-04-27 23:19 27.81515 -80.67263 10906 ft 344 kts 201°
2026-04-27 23:19 27.79235 -80.68109 11525 ft 353 kts 200°
2026-04-27 23:20 27.76880 -80.68978 12265 ft 359 kts 200°
2026-04-27 23:20 27.74488 -80.69855 12986 ft 364 kts 200°
2026-04-27 23:20 27.72056 -80.70743 13698 ft 370 kts 201°
2026-04-27 23:20 27.69590 -80.71645 14352 ft 375 kts 201°
2026-04-27 23:21 27.67093 -80.72562 15008 ft 379 kts 200°
2026-04-27 23:21 27.64567 -80.73488 15673 ft 383 kts 200°
2026-04-27 23:21 27.62019 -80.74422 16341 ft 387 kts 200°
2026-04-27 23:21 27.59452 -80.75363 16999 ft 391 kts 200°
2026-04-27 23:22 27.56854 -80.76314 17651 ft 394 kts 200°
2026-04-27 23:22 27.54231 -80.77273 18296 ft 398 kts 200°
2026-04-27 23:22 27.51586 -80.78241 18855 ft 402 kts 200°
2026-04-27 23:22 27.48915 -80.79217 19399 ft 405 kts 200°
2026-04-27 23:23 27.46250 -80.80191 19925 ft 409 kts 200°
2026-04-27 23:23 27.43530 -80.81187 20471 ft 413 kts 200°
2026-04-27 23:23 27.40790 -80.82189 20979 ft 417 kts 200°
2026-04-27 23:23 27.38020 -80.83204 21509 ft 420 kts 201°
2026-04-27 23:24 27.35225 -80.84227 22017 ft 424 kts 201°
2026-04-27 23:24 27.32392 -80.85201 22517 ft 429 kts 196°
2026-04-27 23:24 27.29427 -80.85735 23011 ft 435 kts 187°
2026-04-27 23:24 27.26396 -80.86056 23504 ft 439 kts 188°
2026-04-27 23:25 27.23344 -80.86386 23925 ft 443 kts 188°
2026-04-27 23:25 27.20264 -80.86727 24336 ft 446 kts 188°
2026-04-27 23:25 27.17169 -80.87075 24741 ft 449 kts 188°
2026-04-27 23:25 27.14055 -80.87423 25144 ft 452 kts 188°
2026-04-27 23:26 27.10915 -80.87772 25540 ft 454 kts 188°
2026-04-27 23:26 27.07806 -80.88115 25931 ft 457 kts 188°
2026-04-27 23:26 27.04629 -80.88463 26318 ft 460 kts 188°
2026-04-27 23:26 27.01438 -80.88811 26710 ft 462 kts 188°
2026-04-27 23:27 26.98228 -80.89157 27102 ft 465 kts 188°
2026-04-27 23:27 26.94996 -80.89506 27488 ft 467 kts 188°
2026-04-27 23:27 26.91751 -80.89857 27864 ft 470 kts 188°
2026-04-27 23:27 26.88490 -80.90212 28239 ft 472 kts 188°
2026-04-27 23:28 26.85209 -80.90570 28594 ft 475 kts 188°
2026-04-27 23:28 26.81913 -80.90927 28942 ft 477 kts 188°
2026-04-27 23:28 26.78645 -80.91282 29290 ft 479 kts 188°
2026-04-27 23:28 26.75326 -80.91645 29654 ft 480 kts 188°
2026-04-27 23:29 26.71991 -80.92010 29992 ft 482 kts 188°
2026-04-27 23:29 26.68644 -80.92376 30293 ft 484 kts 188°
2026-04-27 23:29 26.65286 -80.92744 30571 ft 486 kts 188°
2026-04-27 23:29 26.61913 -80.93112 30873 ft 487 kts 188°
2026-04-27 23:30 26.58542 -80.93477 31266 ft 486 kts 188°
2026-04-27 23:30 26.55178 -80.93839 31651 ft 485 kts 188°
2026-04-27 23:30 26.51822 -80.94201 32048 ft 484 kts 188°
2026-04-27 23:30 26.48479 -80.94560 32448 ft 482 kts 188°
2026-04-27 23:31 26.45144 -80.94919 32848 ft 481 kts 188°
2026-04-27 23:31 26.41856 -80.95273 33245 ft 480 kts 188°
2026-04-27 23:31 26.38542 -80.95635 33644 ft 478 kts 188°
2026-04-27 23:31 26.35235 -80.95998 34040 ft 477 kts 188°
2026-04-27 23:32 26.31938 -80.96359 34379 ft 476 kts 188°
2026-04-27 23:32 26.28631 -80.96718 34696 ft 476 kts 188°
2026-04-27 23:32 26.25337 -80.97071 34976 ft 476 kts 189°
2026-04-27 23:32 26.22036 -80.97424 35258 ft 477 kts 189°
2026-04-27 23:33 26.18738 -80.97780 35542 ft 477 kts 189°
2026-04-27 23:33 26.15434 -80.98137 35812 ft 477 kts 189°
2026-04-27 23:33 26.12128 -80.98495 36082 ft 477 kts 189°
2026-04-27 23:33 26.08827 -80.98854 36349 ft 477 kts 189°
2026-04-27 23:34 26.05522 -80.99213 36605 ft 477 kts 189°
2026-04-27 23:34 26.02212 -80.99572 36853 ft 477 kts 189°
2026-04-27 23:34 25.98909 -80.99927 37095 ft 478 kts 189°
2026-04-27 23:34 25.95607 -81.00281 37319 ft 478 kts 190°
2026-04-27 23:35 25.92301 -81.00636 37555 ft 478 kts 190°
2026-04-27 23:35 25.88989 -81.00991 37785 ft 478 kts 190°
2026-04-27 23:35 25.85677 -81.01350 37993 ft 479 kts 190°
2026-04-27 23:35 25.82365 -81.01711 38057 ft 479 kts 190°
2026-04-27 23:36 25.75771 -81.02423 38059 ft 479 kts 190°
2026-04-27 23:36 25.69141 -81.03131 38058 ft 479 kts 190°
2026-04-27 23:37 25.62510 -81.03843 38061 ft 479 kts 190°
2026-04-27 23:37 25.55873 -81.04551 38057 ft 479 kts 190°
2026-04-27 23:38 25.49234 -81.05256 38057 ft 479 kts 190°
2026-04-27 23:38 25.42596 -81.05967 38066 ft 480 kts 190°
2026-04-27 23:39 25.35947 -81.06674 38036 ft 480 kts 190°
2026-04-27 23:39 25.29300 -81.07383 38060 ft 480 kts 191°
2026-04-27 23:40 25.22702 -81.08089 38069 ft 480 kts 190°
2026-04-27 23:40 25.16050 -81.08796 38075 ft 480 kts 190°
2026-04-27 23:41 25.09392 -81.09501 38077 ft 481 kts 191°
2026-04-27 23:41 25.02738 -81.10210 38050 ft 480 kts 191°
2026-04-27 23:42 24.96090 -81.10912 38058 ft 480 kts 191°
2026-04-27 23:42 24.89444 -81.11614 38060 ft 479 kts 191°
2026-04-27 23:43 24.82847 -81.12317 38055 ft 479 kts 191°
2026-04-27 23:43 24.76208 -81.13015 38051 ft 479 kts 191°
2026-04-27 23:44 24.69559 -81.13709 38030 ft 482 kts 191°
2026-04-27 23:44 24.62871 -81.14416 38043 ft 482 kts 191°
2026-04-27 23:45 24.56208 -81.15159 38056 ft 481 kts 192°
2026-04-27 23:45 24.49574 -81.16107 38049 ft 480 kts 194°
2026-04-27 23:46 24.42964 -81.17138 38065 ft 480 kts 193°
2026-04-27 23:46 24.36388 -81.18121 38066 ft 481 kts 193°
2026-04-27 23:47 24.29753 -81.19066 38069 ft 481 kts 193°
2026-04-27 23:47 24.23116 -81.20005 38055 ft 481 kts 193°
2026-04-27 23:48 24.16485 -81.20959 38068 ft 481 kts 193°
2026-04-27 23:48 24.09854 -81.21914 38056 ft 480 kts 193°
2026-04-27 23:49 24.03245 -81.22871 38065 ft 478 kts 195°
2026-04-27 23:49 23.97066 -81.24988 38066 ft 462 kts 212°
2026-04-27 23:50 23.91376 -81.28212 38068 ft 460 kts 213°
2026-04-27 23:50 23.85684 -81.31420 38048 ft 461 kts 213°
2026-04-27 23:51 23.79981 -81.34619 38030 ft 461 kts 213°
2026-04-27 23:51 23.74285 -81.37819 38051 ft 460 kts 213°
2026-04-27 23:52 23.68596 -81.41019 38063 ft 460 kts 213°
2026-04-27 23:52 23.62907 -81.44216 38066 ft 460 kts 213°
2026-04-27 23:53 23.57253 -81.47381 38066 ft 460 kts 213°
2026-04-27 23:53 23.51559 -81.50565 38043 ft 460 kts 213°
2026-04-27 23:54 23.45877 -81.53746 38062 ft 459 kts 213°
2026-04-27 23:54 23.40201 -81.56923 38069 ft 458 kts 213°
2026-04-27 23:55 23.34538 -81.60090 38075 ft 458 kts 213°
2026-04-27 23:55 23.28872 -81.63257 38074 ft 457 kts 213°
2026-04-27 23:56 23.23248 -81.66391 38060 ft 457 kts 212°
2026-04-27 23:56 23.17582 -81.69541 38051 ft 457 kts 212°
2026-04-27 23:57 23.11917 -81.72690 38057 ft 457 kts 212°
2026-04-27 23:57 23.06252 -81.75846 38068 ft 457 kts 212°
2026-04-27 23:58 23.00595 -81.78990 38067 ft 457 kts 212°
2026-04-27 23:58 22.94932 -81.82137 38063 ft 457 kts 212°
2026-04-27 23:59 22.90220 -81.84743 38065 ft 457 kts 212°
2026-04-27 23:59 22.83641 -81.88384 38061 ft 456 kts 212°
2026-04-28 00:00 22.77990 -81.91512 38065 ft 456 kts 212°
2026-04-28 00:00 22.73293 -81.94116 38065 ft 456 kts 212°
2026-04-28 00:01 22.67644 -81.97238 38065 ft 456 kts 212°
2026-04-28 00:01 22.61989 -82.00353 38062 ft 456 kts 212°
2026-04-28 00:02 22.56344 -82.03458 38047 ft 455 kts 211°
2026-04-28 00:02 22.50698 -82.06564 38056 ft 455 kts 212°
2026-04-28 00:03 22.45064 -82.09668 38061 ft 454 kts 212°
2026-04-28 00:03 22.39473 -82.12740 38054 ft 454 kts 212°
2026-04-28 00:04 22.31025 -82.17378 38054 ft 454 kts 211°
2026-04-28 00:05 22.25397 -82.20470 38030 ft 453 kts 211°
2026-04-28 00:05 22.19781 -82.23560 38045 ft 453 kts 211°
2026-04-28 00:06 22.14158 -82.26641 38046 ft 453 kts 211°
2026-04-28 00:06 22.08570 -82.29691 38055 ft 453 kts 211°
2026-04-28 00:07 22.02940 -82.32763 38054 ft 453 kts 211°
2026-04-28 00:07 21.97320 -82.35830 38052 ft 453 kts 211°
2026-04-28 00:08 21.91699 -82.38906 38043 ft 453 kts 211°
2026-04-28 00:08 21.86087 -82.41967 38033 ft 452 kts 211°
2026-04-28 00:09 21.80506 -82.45005 38046 ft 452 kts 211°
2026-04-28 00:09 21.74892 -82.48058 38042 ft 452 kts 211°
2026-04-28 00:10 21.69273 -82.51101 38037 ft 453 kts 208°
2026-04-28 00:10 21.63289 -82.53357 38038 ft 457 kts 201°
2026-04-28 00:11 21.57241 -82.55438 38034 ft 456 kts 201°
2026-04-28 00:11 21.51236 -82.57509 38045 ft 456 kts 201°
2026-04-28 00:12 21.45194 -82.59594 38044 ft 456 kts 201°
2026-04-28 00:12 21.39157 -82.61669 38046 ft 456 kts 201°
2026-04-28 00:13 21.33122 -82.63742 38043 ft 456 kts 201°
2026-04-28 00:13 21.27086 -82.65821 38043 ft 456 kts 201°
2026-04-28 00:14 21.21048 -82.67892 38042 ft 456 kts 201°
2026-04-28 00:14 21.15054 -82.69945 38042 ft 456 kts 201°
2026-04-28 00:15 21.09014 -82.72014 38039 ft 456 kts 201°
2026-04-28 00:15 21.02973 -82.74082 38039 ft 456 kts 201°
2026-04-28 00:16 20.96934 -82.76140 38026 ft 456 kts 201°
2026-04-28 00:16 20.90896 -82.78202 38035 ft 455 kts 200°
2026-04-28 00:17 20.84871 -82.80265 38036 ft 455 kts 201°
2026-04-28 00:17 20.78841 -82.82334 38037 ft 455 kts 201°
2026-04-28 00:18 20.72810 -82.84393 38036 ft 455 kts 201°
2026-04-28 00:18 20.66813 -82.86429 38036 ft 455 kts 200°
2026-04-28 00:19 20.60779 -82.88472 38033 ft 455 kts 200°
2026-04-28 00:19 20.54747 -82.90520 38037 ft 455 kts 200°
2026-04-28 00:20 20.48724 -82.92575 38036 ft 455 kts 200°
2026-04-28 00:20 20.42700 -82.94627 38037 ft 455 kts 200°
2026-04-28 00:21 20.36670 -82.96673 38041 ft 455 kts 200°
2026-04-28 00:21 20.30640 -82.98709 38031 ft 454 kts 200°
2026-04-28 00:22 20.24654 -83.00739 38044 ft 454 kts 200°
2026-04-28 00:22 20.18636 -83.02781 38041 ft 454 kts 200°
2026-04-28 00:23 20.12619 -83.04816 38034 ft 454 kts 200°
2026-04-28 00:23 20.06601 -83.06848 38031 ft 454 kts 200°
2026-04-28 00:24 20.00585 -83.08876 38040 ft 454 kts 200°
2026-04-28 00:24 19.94610 -83.10887 38033 ft 453 kts 200°
2026-04-28 00:25 19.88599 -83.12915 38033 ft 453 kts 200°
2026-04-28 00:25 19.82594 -83.14944 38038 ft 453 kts 200°
2026-04-28 00:26 19.76589 -83.16957 38032 ft 453 kts 200°
2026-04-28 00:26 19.70576 -83.18972 38033 ft 453 kts 200°
2026-04-28 00:27 19.64561 -83.20993 38019 ft 453 kts 200°
2026-04-28 00:27 19.58547 -83.23018 38020 ft 453 kts 200°
2026-04-28 00:28 19.52581 -83.25022 38037 ft 453 kts 200°
2026-04-28 00:28 19.46577 -83.27034 38035 ft 453 kts 200°
2026-04-28 00:29 19.40565 -83.29048 38027 ft 453 kts 200°
2026-04-28 00:29 19.34560 -83.31060 38028 ft 453 kts 200°
2026-04-28 00:30 19.28549 -83.33070 38038 ft 453 kts 200°
2026-04-28 00:30 19.22541 -83.35072 38039 ft 452 kts 200°
2026-04-28 00:31 19.16576 -83.37064 38040 ft 452 kts 200°
2026-04-28 00:31 19.10578 -83.39063 38036 ft 452 kts 200°
2026-04-28 00:32 19.04575 -83.41064 38032 ft 452 kts 200°
2026-04-28 00:32 18.98580 -83.43062 38020 ft 452 kts 200°
2026-04-28 00:33 18.92595 -83.45064 38026 ft 451 kts 200°
2026-04-28 00:33 18.86612 -83.47057 38027 ft 451 kts 200°
2026-04-28 00:34 18.80629 -83.49035 38032 ft 450 kts 200°
2026-04-28 00:34 18.74687 -83.50988 38031 ft 450 kts 200°
2026-04-28 00:35 18.68718 -83.52976 38019 ft 450 kts 200°
2026-04-28 00:35 18.62745 -83.54975 38008 ft 450 kts 200°
2026-04-28 00:36 18.56765 -83.56958 38012 ft 450 kts 200°
2026-04-28 00:36 18.50785 -83.58932 38013 ft 451 kts 199°
2026-04-28 00:37 18.44800 -83.60900 38011 ft 451 kts 199°
2026-04-28 00:37 18.38857 -83.62864 38013 ft 450 kts 200°
2026-04-28 00:38 18.32878 -83.64845 38013 ft 450 kts 199°
2026-04-28 00:38 18.26897 -83.66825 38001 ft 450 kts 199°
2026-04-28 00:39 18.20920 -83.68802 38004 ft 451 kts 199°
2026-04-28 00:39 18.14930 -83.70769 38004 ft 451 kts 199°
2026-04-28 00:40 18.08953 -83.72750 38006 ft 451 kts 199°
2026-04-28 00:40 18.03005 -83.74704 38006 ft 451 kts 199°
2026-04-28 00:41 17.97018 -83.76659 38003 ft 451 kts 199°
2026-04-28 00:41 17.91036 -83.78619 38005 ft 450 kts 199°
2026-04-28 00:42 17.85055 -83.80590 38005 ft 450 kts 199°
2026-04-28 00:42 17.79071 -83.82555 38000 ft 450 kts 199°
2026-04-28 00:43 17.73095 -83.84527 38001 ft 450 kts 199°
2026-04-28 00:43 17.67158 -83.86481 37999 ft 450 kts 199°
2026-04-28 00:44 17.61182 -83.88445 37989 ft 450 kts 199°
2026-04-28 00:44 17.55204 -83.90403 37990 ft 450 kts 199°
2026-04-28 00:45 17.49223 -83.92349 37986 ft 450 kts 199°
2026-04-28 00:45 17.43236 -83.94295 37986 ft 450 kts 199°
2026-04-28 00:46 17.37385 -83.96591 37982 ft 449 kts 204°
2026-04-28 00:46 17.31648 -83.99086 37980 ft 449 kts 204°
2026-04-28 00:47 17.25881 -84.01593 37977 ft 449 kts 204°
2026-04-28 00:47 17.20112 -84.04098 37976 ft 449 kts 204°
2026-04-28 00:48 17.14428 -84.06783 37977 ft 448 kts 205°
2026-04-28 00:48 17.08572 -84.09062 37978 ft 449 kts 199°
2026-04-28 00:49 17.02638 -84.11110 37986 ft 449 kts 201°
2026-04-28 00:49 16.96832 -84.13403 37983 ft 449 kts 203°
2026-04-28 00:50 16.91068 -84.15887 37987 ft 448 kts 204°
2026-04-28 00:50 16.85303 -84.18363 37992 ft 447 kts 203°
2026-04-28 00:51 16.79528 -84.20777 37990 ft 447 kts 203°
2026-04-28 00:51 16.73746 -84.23164 37986 ft 447 kts 203°
2026-04-28 00:52 16.67970 -84.25558 37982 ft 447 kts 203°
2026-04-28 00:52 16.62196 -84.27966 37982 ft 447 kts 203°
2026-04-28 00:53 16.56466 -84.30358 37983 ft 446 kts 204°
2026-04-28 00:53 16.50697 -84.32748 37981 ft 446 kts 202°
2026-04-28 00:54 16.44934 -84.35135 37980 ft 446 kts 203°
2026-04-28 00:54 16.39173 -84.37529 37978 ft 446 kts 203°
2026-04-28 00:55 16.33404 -84.39921 37974 ft 446 kts 203°
2026-04-28 00:55 16.27678 -84.42292 37975 ft 446 kts 203°
2026-04-28 00:56 16.21916 -84.44682 37981 ft 445 kts 203°
2026-04-28 00:56 16.16164 -84.47062 37981 ft 445 kts 203°
2026-04-28 00:57 16.10421 -84.49439 37976 ft 444 kts 202°
2026-04-28 00:57 16.04686 -84.51813 37972 ft 444 kts 203°
2026-04-28 00:58 15.98983 -84.54167 37971 ft 443 kts 203°
2026-04-28 00:58 15.93253 -84.56531 37969 ft 443 kts 202°
2026-04-28 00:59 15.87520 -84.58906 37963 ft 443 kts 202°
2026-04-28 00:59 15.81782 -84.61273 37966 ft 444 kts 202°
2026-04-28 01:00 15.76033 -84.63634 37968 ft 444 kts 202°
2026-04-28 01:00 15.70291 -84.65995 37973 ft 444 kts 202°
2026-04-28 01:01 15.64579 -84.68345 37975 ft 445 kts 202°
2026-04-28 01:01 15.58829 -84.70718 37974 ft 445 kts 202°
2026-04-28 01:02 15.53066 -84.73089 37979 ft 445 kts 202°
2026-04-28 01:02 15.47305 -84.75452 37984 ft 445 kts 202°
2026-04-28 01:03 15.41556 -84.77812 37982 ft 445 kts 202°
2026-04-28 01:03 15.35839 -84.80151 37981 ft 444 kts 202°
2026-04-28 01:04 15.30093 -84.82507 37987 ft 444 kts 202°
2026-04-28 01:04 15.24351 -84.84869 37978 ft 444 kts 202°
2026-04-28 01:05 15.18604 -84.87218 37978 ft 444 kts 202°
2026-04-28 01:05 15.12858 -84.89574 37972 ft 444 kts 202°
2026-04-28 01:06 15.07164 -84.91907 37967 ft 443 kts 202°
2026-04-28 01:06 15.01423 -84.94250 37957 ft 443 kts 202°
2026-04-28 01:07 14.95692 -84.96587 37956 ft 443 kts 202°
2026-04-28 01:07 14.89960 -84.98928 37957 ft 443 kts 202°
2026-04-28 01:08 14.84227 -85.01264 37941 ft 442 kts 202°
2026-04-28 01:08 14.78510 -85.03601 37943 ft 442 kts 202°
2026-04-28 01:09 14.72841 -85.05921 37941 ft 441 kts 202°
2026-04-28 01:09 14.67125 -85.08252 37934 ft 442 kts 202°
2026-04-28 01:10 14.61404 -85.10580 37932 ft 442 kts 202°
2026-04-28 01:10 14.55675 -85.12905 37934 ft 442 kts 202°
2026-04-28 01:11 14.49946 -85.15235 37936 ft 443 kts 202°
2026-04-28 01:11 14.44214 -85.17576 37934 ft 443 kts 202°
2026-04-28 01:12 14.38516 -85.19888 37940 ft 443 kts 202°
2026-04-28 01:12 14.32777 -85.22217 37942 ft 443 kts 202°
2026-04-28 01:13 14.27042 -85.24548 37939 ft 443 kts 202°
2026-04-28 01:13 14.18438 -85.28036 37946 ft 443 kts 202°
2026-04-28 01:14 14.12707 -85.30363 37944 ft 443 kts 202°
2026-04-28 01:14 14.06960 -85.32692 37949 ft 443 kts 202°
2026-04-28 01:15 14.01250 -85.35073 37946 ft 443 kts 204°
2026-04-28 01:15 13.95675 -85.37682 37948 ft 443 kts 206°
2026-04-28 01:16 13.90099 -85.40371 37952 ft 443 kts 206°
2026-04-28 01:16 13.84497 -85.43015 37950 ft 443 kts 205°
2026-04-28 01:17 13.81691 -85.44319 37716 ft 442 kts 205°
2026-04-28 01:17 13.78881 -85.45619 37446 ft 444 kts 205°
2026-04-28 01:17 13.76072 -85.46919 37196 ft 443 kts 205°
2026-04-28 01:17 13.73254 -85.48223 36951 ft 443 kts 205°
2026-04-28 01:18 13.70442 -85.49523 36694 ft 444 kts 205°
2026-04-28 01:18 13.67625 -85.50826 36446 ft 444 kts 205°
2026-04-28 01:18 13.64810 -85.52133 36202 ft 444 kts 205°
2026-04-28 01:18 13.61995 -85.53443 35960 ft 445 kts 205°
2026-04-28 01:19 13.59212 -85.54735 35720 ft 445 kts 205°
2026-04-28 01:19 13.57306 -85.55620 35565 ft 445 kts 205°
2026-04-28 01:19 13.53563 -85.57360 35260 ft 446 kts 205°
2026-04-28 01:19 13.50740 -85.58674 35027 ft 446 kts 205°
2026-04-28 01:20 13.47905 -85.59986 34785 ft 447 kts 205°
2026-04-28 01:20 13.45069 -85.61295 34558 ft 447 kts 205°
2026-04-28 01:20 13.42236 -85.62602 34330 ft 447 kts 205°
2026-04-28 01:20 13.39397 -85.63916 34106 ft 447 kts 205°
2026-04-28 01:21 13.36561 -85.65229 33872 ft 447 kts 205°
2026-04-28 01:21 13.33726 -85.66545 33612 ft 448 kts 205°
2026-04-28 01:21 13.30919 -85.67848 33361 ft 449 kts 205°
2026-04-28 01:21 13.28065 -85.69170 33106 ft 451 kts 205°
2026-04-28 01:22 13.25199 -85.70496 32852 ft 452 kts 205°
2026-04-28 01:22 13.22331 -85.71822 32603 ft 454 kts 205°
2026-04-28 01:22 13.19446 -85.73156 32355 ft 455 kts 205°
2026-04-28 01:22 13.16564 -85.74491 32109 ft 456 kts 205°
2026-04-28 01:23 13.13663 -85.75832 31872 ft 457 kts 205°
2026-04-28 01:23 13.10759 -85.77172 31626 ft 458 kts 205°
2026-04-28 01:23 13.07854 -85.78525 31381 ft 459 kts 207°
2026-04-28 01:23 13.05083 -85.80137 30521 ft 458 kts 215°
2026-04-28 01:24 13.02542 -85.81983 29470 ft 447 kts 217°
2026-04-28 01:24 13.00068 -85.83802 28787 ft 429 kts 217°
2026-04-28 01:24 12.97681 -85.85558 28115 ft 421 kts 217°
2026-04-28 01:24 12.95299 -85.87307 27440 ft 420 kts 216°
2026-04-28 01:25 12.92928 -85.89042 26780 ft 419 kts 216°
2026-04-28 01:25 12.90556 -85.90771 26122 ft 418 kts 216°
2026-04-28 01:25 12.88187 -85.92494 25454 ft 418 kts 216°
2026-04-28 01:25 12.85820 -85.94214 24813 ft 417 kts 216°
2026-04-28 01:26 12.83448 -85.95938 24171 ft 417 kts 216°
2026-04-28 01:26 12.81081 -85.97659 23554 ft 417 kts 216°
2026-04-28 01:26 12.79514 -85.98801 23079 ft 417 kts 216°
2026-04-28 01:26 12.77159 -86.00517 22500 ft 414 kts 216°
2026-04-28 01:27 12.74073 -86.02769 21759 ft 409 kts 216°
2026-04-28 01:27 12.71765 -86.04452 21214 ft 405 kts 216°
2026-04-28 01:27 12.69478 -86.06117 20710 ft 402 kts 215°
2026-04-28 01:27 12.67203 -86.07770 20192 ft 400 kts 215°
2026-04-28 01:28 12.64941 -86.09412 19678 ft 398 kts 215°
2026-04-28 01:28 12.62692 -86.11046 19162 ft 396 kts 215°
2026-04-28 01:28 12.61205 -86.12124 18801 ft 396 kts 215°
2026-04-28 01:28 12.58961 -86.13751 18247 ft 395 kts 215°
2026-04-28 01:29 12.56716 -86.15378 17646 ft 395 kts 215°
2026-04-28 01:29 12.54479 -86.17002 17092 ft 393 kts 215°
2026-04-28 01:29 12.52253 -86.18622 16480 ft 392 kts 216°
2026-04-28 01:29 12.49330 -86.20746 15920 ft 386 kts 215°
2026-04-28 01:30 12.47852 -86.21817 15551 ft 385 kts 215°
2026-04-28 01:30 12.45666 -86.23401 14998 ft 384 kts 215°
2026-04-28 01:30 12.43514 -86.24960 14444 ft 384 kts 215°
2026-04-28 01:30 12.41342 -86.26534 13876 ft 383 kts 216°
2026-04-28 01:31 12.39184 -86.28097 13277 ft 373 kts 216°
2026-04-28 01:31 12.37135 -86.29580 13046 ft 347 kts 216°
2026-04-28 01:31 12.35221 -86.30966 12695 ft 330 kts 216°
2026-04-28 01:31 12.33379 -86.32303 12403 ft 322 kts 217°
2026-04-28 01:32 12.31776 -86.33869 12153 ft 318 kts 235°
2026-04-28 01:32 12.30690 -86.35810 11913 ft 314 kts 251°
2026-04-28 01:32 12.30172 -86.37960 11669 ft 311 kts 267°
2026-04-28 01:32 12.30228 -86.40151 11430 ft 307 kts 279°
2026-04-28 01:33 12.30471 -86.42315 11123 ft 306 kts 279°
2026-04-28 01:33 12.30715 -86.44485 10682 ft 308 kts 279°
2026-04-28 01:33 12.30954 -86.46631 10298 ft 307 kts 279°
2026-04-28 01:33 12.30972 -86.48814 9822 ft 314 kts 259°
2026-04-28 01:34 12.30055 -86.50804 9441 ft 309 kts 232°
2026-04-28 01:34 12.28371 -86.52135 8724 ft 308 kts 201°
2026-04-28 01:34 12.26303 -86.52561 8155 ft 303 kts 184°
2026-04-28 01:34 12.24203 -86.52784 7668 ft 305 kts 184°
2026-04-28 01:35 12.22095 -86.52991 7138 ft 300 kts 179°
2026-04-28 01:35 12.20107 -86.52587 6663 ft 289 kts 150°
2026-04-28 01:35 12.18584 -86.51333 6212 ft 278 kts 123°
2026-04-28 01:35 12.17805 -86.49581 5763 ft 269 kts 99°
2026-04-28 01:36 12.17547 -86.47731 5339 ft 264 kts 92°
2026-04-28 01:36 12.17380 -86.45871 4925 ft 263 kts 93°
2026-04-28 01:36 12.17187 -86.44032 4658 ft 254 kts 95°
2026-04-28 01:36 12.16992 -86.42289 4538 ft 239 kts 95°
2026-04-28 01:37 12.16809 -86.40653 4372 ft 225 kts 95°
2026-04-28 01:37 12.16638 -86.39117 4118 ft 211 kts 95°
2026-04-28 01:37 12.16478 -86.37667 3873 ft 200 kts 95°
2026-04-28 01:37 12.16324 -86.36284 3621 ft 193 kts 95°
2026-04-28 01:38 12.16174 -86.34925 3364 ft 191 kts 95°
2026-04-28 01:38 12.16027 -86.33604 3116 ft 183 kts 96°
2026-04-28 01:38 12.15885 -86.32330 2876 ft 178 kts 96°
2026-04-28 01:38 12.15748 -86.31094 2665 ft 170 kts 97°
2026-04-28 01:39 12.15620 -86.29938 2432 ft 158 kts 97°
2026-04-28 01:39 12.15502 -86.28873 2233 ft 149 kts 98°
2026-04-28 01:39 12.15387 -86.27844 2029 ft 142 kts 99°
2026-04-28 01:39 12.15278 -86.26867 1864 ft 135 kts 98°
2026-04-28 01:40 12.15174 -86.25933 1687 ft 128 kts 100°
2026-04-28 01:40 12.15076 -86.25049 1539 ft 122 kts 101°
2026-04-28 01:40 12.14977 -86.24175 1386 ft 127 kts 101°
2026-04-28 01:40 12.14876 -86.23262 1241 ft 129 kts 99°
2026-04-28 01:41 12.14774 -86.22350 1087 ft 131 kts 100°
2026-04-28 01:41 12.14668 -86.21411 902 ft 132 kts 95°
2026-04-28 01:41 12.14561 -86.20466 758 ft 137 kts 96°
2026-04-28 01:41 12.14457 -86.19524 582 ft 134 kts 97°
2026-04-28 01:42 12.14364 -86.18586 391 ft 132 kts 97°
2026-04-28 01:42 12.14254 -86.17654 222 ft 130 kts 101°
2026-04-28 01:42 12.14162 -86.16851 201 ft 90 kts 104°
2026-04-28 01:42 12.14111 -86.16392 201 ft 46 kts 96°
2026-04-28 01:43 12.14074 -86.16151 212 ft 21 kts 117°
2026-04-28 01:43 12.14084 -86.16097 208 ft 5 kts 301°
2026-04-28 01:43 12.14087 -86.16128 204 ft 4 kts 274°
2026-04-28 01:43 12.14089 -86.16153 202 ft 3 kts 274°
2026-04-28 01:44 12.14094 -86.16240 208 ft 20 kts 275°
2026-04-28 01:44 12.14109 -86.16377 201 ft 20 kts 276°
2026-04-28 01:44 12.14126 -86.16516 204 ft 20 kts 278°
2026-04-28 01:44 12.14204 -86.16608 201 ft 17 kts 333°
2026-04-28 01:45 12.14279 -86.16683 206 ft 15 kts 279°
2026-04-28 01:45 12.14292 -86.16790 209 ft 15 kts 275°
2026-04-28 01:45 12.14303 -86.16895 200 ft 15 kts 277°
2026-04-28 01:45 12.14320 -86.16992 208 ft 12 kts 281°
2026-04-28 01:46 12.14342 -86.17022 205 ft 2 kts 22°
2026-04-28 01:46 12.14377 -86.17010 203 ft 8 kts
2026-04-28 01:46 12.14392 -86.17008 212 ft 0 kts